www.pogodaiklimat.ru

Погода и климат >> Архив погоды >> Россия >> Якутия >> Усть-Мая


ПОГОДА в Усть-Мае

АРХИВ ПОГОДЫ в Усть-Мае

Время (UTC), дата Ветер
(напр.,м/с)
 
Видим.   Явления Облачность Т
(С)
Тd
(С)
f
(%)
Тe
(С)
Тes
(С)
Комфортность P
(гПа)
Po
(гПа)
Тmin
(С)
Tmax
(С)
R
(мм)
R24
(мм)
S
(см)
00 11.11 штиль 0 20 км слабый снег 10/0
[Ac trans Cs]
-25.5 -26.8 89 -26 -26 1015.9 992.5 -27.1
03 11.11 штиль 0 20 км {снег} 6/3 600 м
[Sc Ac trans Ci fib]
-20.6 -22.9 82 -21 -20 1015.7 992.7
06 11.11 штиль 0 50 км {снег} 3/0
[Ac trans]
-20.4 -22.6 82 -20 -20 1016.3 993.3
09 11.11 штиль 0 50 км 3/0
[Ac trans Ci fib]
-25.6 -27.0 88 -26 -26 1018.1 994.7 -19.3 0.0
12 11.11 штиль 0 50 км 8/0
[Ac trans Cs]
-25.2 -26.6 88 -25 -25 1019.2 995.8
15 11.11 штиль 0 50 км 4/0
[Ac trans Ci fib]
-25.6 -27.0 88 -26 -26 1020.1 996.6
18 11.11 штиль 0 50 км 8/0
[Ac trans Cs]
-25.6 -27.1 87 -26 -26 1021.1 997.6
21 11.11 штиль 0 50 км 8/0
[Ac trans Cs]
-25.1 -26.5 88 -25 -25 1021.9 998.5 -25.7 21
00 12.11 штиль 0 50 км 10/0
[Ac trans Ci fib]
-25.8 -27.3 87 -26 -26 1023.0 999.4 -26.8
03 12.11 С 1 50 км 4/0
[Ci fib]
-22.6 -25.1 80 -26 -25 1022.8 999.5
06 12.11 СВ 1 50 км 5/0
[Ac trans Ci fib]
-20.9 -23.5 80 -24 -24 1023.0 999.9
09 12.11 С 1 50 км 6/0
[Ac trans Ci fib]
-26.3 -27.8 87 -30 -30 1024.2 1000.6 -20.5
12 12.11 штиль 0 н/о н/о -29.5 -31.2 85 -30 -30 1025.0 1001.1
15 12.11 штиль 0 н/о н/о -32.0 -33.8 84 -32 -32 опасность
обморожения
1025.5 1001.3
18 12.11 штиль 0 н/о н/о -32.0 -33.7 85 -32 -32 опасность
обморожения
1025.7 1001.5
21 12.11 штиль 0 50 км 3/0
[Ci fib]
-32.6 -34.4 84 -33 -33 опасность
обморожения
1026.2 1001.9 -32.8 21
00 13.11 ЮЗ 1 50 км 1/0
[Ci fib]
-31.9 -33.6 85 -36 -36 опасность
обморожения
1026.2 1001.9 -33.7
03 13.11 Ю 1 50 км ясно -27.0 -29.5 79 -31 -30 опасность
обморожения
1025.5 1001.8
06 13.11 ЮЗ 2 50 км 6/0
[Ac trans Ci fib]
-25.9 -28.0 82 -33 -33 опасность
обморожения
1025.2 1001.5
09 13.11 ЮЗ 2 20 км слабый снег 10/0
[As op]
-26.2 -27.7 87 -33 -33 опасность
обморожения
1024.8 1001.2 -24.9 0.0
12 13.11 ЮЗ 1 н/о н/о -27.2 -28.8 86 -31 -31 опасность
обморожения
1024.3 1000.6
15 13.11 штиль 0 н/о н/о -29.1 -30.8 85 -29 -29 1024.0 1000.1
18 13.11 штиль 0 н/о н/о -30.5 -32.3 84 -31 -31 опасность
обморожения
1023.9 999.8
21 13.11 штиль 0 20 км слабый снег 10/8 240 м
[Frnb As trans Cs]
-30.4 -32.2 84 -30 -30 1024.3 1000.2 -31.1 0.3 21
00 14.11 штиль 0 20 км слабый снег 10/8 330 м
[Frnb As op]
-28.2 -30.0 84 -28 -28 1024.2 1000.4
03 14.11 З 2 20 км слабый снег 10/8 270 м
[Frnb As op]
-25.9 -29.0 75 -33 -33 опасность
обморожения
1024.1 1000.5
06 14.11 З 1 20 км слабый снег 10/6 270 м
[Frnb As op]
-25.9 -29.2 74 -30 -30 1024.2 1000.5
09 14.11 штиль 0 20 км слабый снег 10/8 900 м
[Sc As op]
-26.9 -29.1 82 -27 -27 1024.8 1001.1 -25.6 0.2
12 14.11 штиль 0 н/о н/о -26.9 -29.0 82 -27 -27 1025.1 1001.4
15 14.11 ЮЗ 1 н/о н/о -26.7 -28.8 82 -30 -30 1024.4 1000.7
18 14.11 Ю 1 н/о н/о -26.9 -28.6 85 -31 -31 опасность
обморожения
1024.0 1000.3
21 14.11 штиль 0 20 км слабый снег 10/0
[Ac trans Cs]
-30.1 -31.5 88 -30 -30 1023.6 999.6 -30.1 0.0 21
00 15.11 штиль 0 50 км {снег} 10/0
[Ac trans Cs]
-31.7 -33.6 83 -32 -32 опасность
обморожения
1023.2 999.0 -32.2
03 15.11 штиль 0 20 км слабый снег 10/0
[Ac trans Cs]
-25.8 -28.9 75 -26 -25 1021.1 997.6
06 15.11 штиль 0 20 км слабый снег 10/0
[Ac trans Cs]
-26.9 -28.8 84 -27 -27 1019.9 996.3
09 15.11 штиль 0 50 км {снег} 3/0
[Ac trans Ci fib]
-32.0 -33.8 84 -32 -32 опасность
обморожения
1019.6 995.5 -25.6 0.0
12 15.11 штиль 0 20 км слабый снег 10/0
[Ac trans Cs]
-33.3 -35.3 82 -33 -33 опасность
обморожения
1018.7 994.5
15 15.11 штиль 0 н/о н/о -34.7 -36.7 82 -35 -35 опасность
обморожения
1017.6 993.2
18 15.11 штиль 0 н/о н/о -34.5 -36.5 82 -35 -35 опасность
обморожения
1016.8 992.5
21 15.11 штиль 0 20 км слабый снег 10/0
[Ac trans Cs]
-35.3 -37.2 83 -35 -35 опасность
обморожения
1017.0 992.7 -35.9 0.2 20
00 16.11 штиль 0 50 км {снег} 8/0
[Ac trans Ci fib]
-34.3 -36.2 83 -34 -34 опасность
обморожения
1018.3 994.0 -36.0
03 16.11 ЮЗ 2 50 км 10/0
[Ac trans Cs]
-29.9 -32.1 81 -37 -37 опасность
обморожения
1019.1 995.2
06 16.11 ЮЗ 2 50 км 10/0
[Ac trans Cs]
-28.0 -30.3 81 -35 -35 опасность
обморожения
1020.3 996.6
09 16.11 Ю 1 50 км 10/0
[Ac trans Cs]
-29.5 -31.1 86 -34 -34 опасность
обморожения
1022.2 998.3 -27.9 0.0
12 16.11 ЮЗ 1 н/о н/о -31.1 -33.0 83 -35 -35 опасность
обморожения
1024.1 1000.0
15 16.11 Ю 1 н/о н/о -32.3 -34.1 84 -37 -37 опасность
обморожения
1025.5 1001.2
18 16.11 Ю 1 н/о н/о -33.1 -35.0 83 -38 -38 опасность
обморожения
1026.6 1002.2
21 16.11 штиль 0 50 км 3/0
[Ci fib]
-34.6 -36.6 82 -35 -35 опасность
обморожения
1026.8 1002.3 -34.6 20
00 17.11 штиль 0 50 км 5/0
[Ac trans Ci fib]
-34.6 -36.5 83 -35 -35 опасность
обморожения
1027.9 1003.1 -36.6
03 17.11 штиль 0 50 км 8/0
[Ac trans Ci fib]
-30.7 -32.9 81 -31 -30 опасность
обморожения
1027.2 1003.1
06 17.11 ЮЗ 2 50 км 8/0
[Ac trans Ci fib]
-28.5 -30.7 81 -36 -36 опасность
обморожения
1026.8 1002.9
09 17.11 Ю 1 20 км слабый снег 10/0
[Ac trans Cs]
-32.1 -33.9 84 -36 -36 опасность
обморожения
1027.6 1003.3 -28.0 0.0
12 17.11 штиль 0 50 км {снег} 4/0
[Ac trans Ci fib]
-36.5 -38.5 82 -37 -37 опасность
обморожения
1028.2 1003.5
15 17.11 штиль 0 50 км 3/0
[Ci fib]
-38.2 -40.4 80 -38 -38 опасность
обморожения
1027.9 1003.0
18 17.11 штиль 0 н/о н/о -38.6 -40.7 80 -39 -39 опасность
обморожения
1027.5 1002.5

 

Местоположение метеостанции Усть-Мая (Якутия, Россия): широта 60.35 долгота 134.40 высота над уровнем моря 170 м.

В архиве по умолчанию представлена погода в Усть-Мае за последнюю неделю. Архивные данные за месяц целиком и за предыдущие месяцы, начиная с января 2011 года, Вы можете получить, выбрав интересующий диапазон дат из раскрывающегося списка и нажав кнопку "Ввод!".

Внимание! Время в таблицах - всемирное. Для получения местного времени необходимо прибавить поправку, которая в Усть-Мае равна 9 ч.

Смотрите также архив погоды в соседних городах и на ближайших метеорологических станциях:

Погода в Усть-Миле (Якутия, Россия) (112 км)
Погода в Усть-Юдоме (Якутия, Россия) (136 км)
Погода в Амге (Якутия, Россия) (149 км)
Погода в Охотском Перевозе (Якутия, Россия) (179 км)
Погода в Югоренке (Якутия, Россия) (189 км)
Погода в Чурапче (Якутия, Россия) (210 км)
Погода в Ытык-Кюёле (Якутия, Россия) (230 км)
Погода в Тегюльте (Якутия, Россия) (242 км)
Погода в Крест-Хальджае (Якутия, Россия) (275 км)
Погода в Учуре (Якутия, Россия) (280 км)

Пояснения к столбцам:

Ветер - указаны скорость ветра в м/с - средняя за 10 мин, порывы в срок и между сроками (в фигурных скобках) и направление, откуда дует ветер: С - северный, СВ - северо-восточный, В - восточный, ЮВ - юго-восточный, Ю - южный, ЮЗ - юго-западный, З - западный, СЗ - северо-западный.
Видимость - горизонтальная дальность видимости в метрах или километрах. При видимости от 1 до 10 км при отсутствии осадков обычно наблюдается дымка, при ухудшении видимости до 1 км и менее - туман. В сухую погоду видимость может ухудшаться дымом, пылью или мглою.
Явления - указаны атмосферные явления, наблюдавшиеся в срок или в последний час перед сроком; фигурными скобками обозначены явления, наблюдавшиеся между сроками (за 1-3 часа до срока); квадратными скобками обозначены град или гололедные отложения с указанием их диаметра в мм.
Облачность - указаны через наклонную черту общая и нижняя облачность в баллах и высота нижней границы облаков в метрах; квадратными скобками обозначены формы облаков: Ci - перистые, Cs - перисто-слоистые, Cc - перисто-кучевые, Ac - высококучевые, As - высокослоистые, Sc - слоисто-кучевые, Ns - слоисто-дождевые, Cu - кучевые, Cb - кучево-дождевые. Подробнее классификацию облаков см. в Атласе облаков (PDF).
T - Температура воздуха - температура, измеренная на высоте 2 м над землей.
Td - Температура точки росы - температура, при понижении до которой содержащийся в воздухе водяной пар достигнет насыщения.
f - Относительная влажность воздуха - влажноcть воздуха, измеренная на высоте 2 м над землей.
Te - Эффективная температура - температура, которую ощущает одетый по сезону человек в тени. Характеристика душности погоды. При расчете учитывается влияние влажности воздуха и скорости ветра на теплоощущения человека.
Tes - Эффективная температура на солнце - температура, которую ощущает человек, с поправкой на солнечный нагрев. Характеристика знойности погоды. Зависит от высоты солнца над горизонтом, облачности и скорости ветра. Ночью, в пасмурную погоду, а также при ветре 12 м/с и более поправка равна нулю.
P - Атмосферное давление - приведенное к уровню моря атмосферное давление.
Po - Атмосферное давление - измеренное на уровне метеостанции атмосферное давление.
Tmin - Минимальная температура - минимум температуры воздуха на высоте 2 м над землей.
Tmax - Максимальная температура - максимум температуры воздуха на высоте 2 м над землей.
R - Количество осадков - Количество выпавших осадков за период времени, мм. При наведении курсора мыши на число - период времени, за который выпало указанное количество осадков.
R24 - Количество осадков - Количество выпавших осадков за 24 часа, мм.
S - Снежный покров - Высота снежного покрова, см. При наведении курсора мыши на число - состояние снежного покрова и степень покрытия местности в баллах.